This demonstration page uses our WeatherBlox Daily Observations layout. Learn more.

Left ArrowRight Arrow

44.8408, -93.29828

Hourly Observations for September 8, 2018

Temp ( °F °C ) Dew Point ( °F °C ) Humidity (%) Winds ( mph kmh ) Pressure ( in mb ) Visibility ( mi km ) Precip ( " mm )
12:53 am 00:53 Clear 61 16.1 53 11.7 75 75 SE 6 9 30.30 1026 10 16 0.00 0.00
1:53 am 01:53 Clear 61 16.1 54 12.2 78 78 SE 3 6 30.32 1027 10 16 0.00 0.00
2:53 am 02:53 Clear 59 15 54 12.2 83 83 E 3 6 30.30 1026 10 16 0.00 0.00
3:53 am 03:53 Clear 58 14.4 54 12.2 87 87 ENE 5 7 30.30 1026 10 16 0.00 0.00
4:53 am 04:53 Clear 58 14.4 53 11.7 84 84 E 6 9 30.29 1026 10 16 0.00 0.00
5:53 am 05:53 Clear 58 14.4 52 11.1 81 81 E 6 9 30.29 1026 10 16 0.00 0.00
8:53 am 08:53 Mostly Sunny 60 15.6 49 9.4 67 67 ESE 10 17 30.29 1026 10 16 0.00 0.00
9:53 am 09:53 Mostly Sunny 63 17.2 50 10 63 63 SE 12 19 30.29 1026 10 16 0.00 0.00
10:53 am 10:53 Mostly Sunny 67 19.4 51 10.6 57 57 ESE 12 19 30.29 1026 10 16 0.00 0.00
11:53 am 11:53 Mostly Sunny 69 20.6 50 10 51 51 ESE 8 13 30.29 1026 10 16 0.00 0.00
12:53 pm 12:53 Sunny 71 21.7 49 9.4 46 46 ESE 9 15 30.26 1025 10 16 0.00 0.00
1:53 pm 13:53 Sunny 72 22.2 45 7.2 38 38 ESE 16 26 30.24 1024 10 16 0.00 0.00
2:53 pm 14:53 Sunny 73 22.8 47 8.3 40 40 ESE 15 24 30.22 1023 10 16 0.00 0.00
3:53 pm 15:53 Sunny 73 22.8 47 8.3 40 40 E 14 22 30.19 1023 10 16 0.00 0.00
4:53 pm 16:53 Sunny 73 22.8 39 3.9 29 29 E 13 20 30.18 1022 10 16 0.00 0.00
5:53 pm 17:53 Sunny 72 22.2 35 1.7 26 26 ESE 14 22 30.17 1022 10 16 0.00 0.00
6:53 pm 18:53 Sunny 69 20.6 36 2.2 30 30 E 12 19 30.17 1022 10 16 0.00 0.00
7:53 pm 19:53 Clear 68 20 38 3.3 33 33 E 10 17 30.16 1021 10 16 0.00 0.00
8:53 pm 20:53 Clear 66 18.9 41 5 40 40 SE 6 9 30.17 1022 10 16 0.00 0.00
9:53 pm 21:53 Clear 62 16.7 45 7.2 54 54 SE 6 9 30.17 1022 10 16 0.00 0.00
10:53 pm 22:53 Clear 61 16.1 47 8.3 60 60 ESE 7 11 30.16 1022 10 16 0.00 0.00
11:53 pm 23:53 Clear 60 15.6 50 10 70 70 SE 8 13 30.16 1022 10 16 0.00 0.00

Powered by AerisWeather